• Processing (Info)

  • MPEC 2016-E126: 2016 ER85

    The following Minor Planet Electronic Circular may be linked-to from your own Web pages, but must not otherwise be redistributed electronically.

    A form allowing access to any MPEC is at the bottom of this page.


    Read MPEC 2016-E125 Read MPEC 2016-E127


    M.P.E.C. 2016-E126                               Issued 2016 Mar. 12, 16:22 UT
    
         The Minor Planet Electronic Circulars contain information on unusual
             minor planets and routine data on comets.  They are published
        on behalf of Division F of the International Astronomical Union by the
              Minor Planet Center, Smithsonian Astrophysical Observatory,
                              Cambridge, MA 02138, U.S.A.
    
                 Prepared using the Tamkin Foundation Computer Network
    
                                  MPC@CFA.HARVARD.EDU
                URL https://www.minorplanetcenter.net/    ISSN 1523-6714
    
                                       2016 ER85
    
    Observations:
         K16E85R* C2016 03 10.24419 11 28 37.95 +08 38 13.8          20.7 VqEE126G96
         K16E85R  C2016 03 10.24729 11 28 42.18 +08 38 34.5          21.0 VqEE126G96
         K16E85R  C2016 03 10.25038 11 28 46.46 +08 38 56.9          22.0 VqEE126G96
         K16E85R  C2016 03 10.25347 11 28 50.60 +08 39 18.1          20.6 VqEE126G96
         K16E85R  C2016 03 10.28025 11 29 26.81 +08 42 23.2                qEE126G96
         K16E85R  C2016 03 10.28472 11 29 32.89 +08 42 53.3          21.5 VqEE126G96
         K16E85R  C2016 03 10.28918 11 29 38.90 +08 43 24.2          21.5 VqEE126G96
         K16E85R  C2016 03 10.29363 11 29 44.92 +08 43 54.4          21.7 VqEE126G96
         K16E85R  C2016 03 10.44802 11 33 14.75 +09 01 18.0          21.6 VqEE126G96
         K16E85R  C2016 03 11.37720 11 55 44.10 +10 44 05.1          21.1 VqEE126G96
         K16E85R  C2016 03 11.37804 11 55 45.26 +10 44 11.0          21.3 VqEE126G96
         K16E85R  C2016 03 11.37889 11 55 46.41 +10 44 16.1          21.0 VqEE126G96
         K16E85R  C2016 03 11.37973 11 55 47.56 +10 44 21.7          21.8 VqEE126G96
         K16E85R  C2016 03 12.27107 12 17 28.61 +12 16 01.3                qEE126G96
         K16E85R  C2016 03 12.27672 12 17 36.25 +12 16 37.4          21.9 VqEE126G96
         K16E85R  C2016 03 12.28238 12 17 43.88 +12 17 09.9          21.0 VqEE126G96
    
    Observer details:
    G96 Mt. Lemmon Survey.  Observers A. R. Gibbs, G. J. Leonard, D. C. Fuls.
        Measurers E. J. Christensen, D. C. Fuls, A. R. Gibbs, A. D. Grauer,
        J. A. Johnson, R. A. Kowalski, S. M. Larson, G. J. Leonard, R. G. Matheny,
        R. L. Seaman, F. C. Shelly.  1.5-m reflector + CCD.
    
    Orbital elements:
    2016 ER85                                                Earth MOID = 0.0388 AU
    Epoch 2016 Jan. 13.0 TT = JDT 2457400.5                 MPC
    M 339.76926              (2000.0)            P               Q
    n   0.34030774     Peri.    3.89856     -0.99107980     -0.13063167
    a   2.0318337      Node   168.49427     +0.11841633     -0.95402149
    e   0.4921314      Incl.    7.60140     +0.06114246     -0.26977466
    P   2.90           H   27.8           G   0.15           U   8
    Residuals in seconds of arc
    160310 G96  0.9-  0.1-    160310 G96  0.2+  0.1+    160311 G96  0.3-  0.4+
    160310 G96  0.6-  0.9-    160310 G96  0.3+  0.2-    160312 G96  1.5+  1.1-
    160310 G96  0.8+  0.2+    160310 G96  0.2+  0.1+    160312 G96  0.1+  1.0+
    160310 G96  0.1+  0.0     160311 G96  0.0   0.1-    160312 G96  1.5-  0.4-
    160310 G96  0.2-  0.5+    160311 G96  0.1+  0.4+
    160310 G96  0.4+  0.1-    160311 G96  0.2-  0.1+
    
    Ephemeris:
    2016 ER85                a,e,i = 2.03, 0.49, 8                   q = 1.0319
    Date    TT    R. A. (2000) Decl.     Delta      r     Elong.  Phase     V
    2016 02 11    07 30 02.5 -11 05 15   0.1335  1.0923   139.9    35.6    25.1
    ...
    2016 02 26    08 17 34.2 -07 56 31   0.07241 1.0480   142.1    35.4    23.7
    ...
    2016 03 05    09 41 52.9 -00 37 43   0.04687 1.0357   158.6    20.5    22.2
    ...
    2016 03 11    11 46 39.1 +10 04 28   0.03894 1.0320   171.8     7.9    21.4
    2016 03 12    12 10 50.0 +11 50 18   0.03917 1.0319   166.6    12.9    21.6
    2016 03 13    12 34 42.1 +13 25 42   0.03988 1.0319   161.5    17.8    21.8
    ...
    2016 03 19    14 29 58.1 +18 34 53   0.05197 1.0347   137.9    40.2    23.0
    ...
    2016 03 27    15 44 50.3 +19 18 58   0.07866 1.0460   126.0    50.5    24.3
    ...
    2016 04 11    16 27 34.7 +17 59 59   0.1361  1.0886   126.5    47.7    25.5
    
    A. U. Tomatic                (C) Copyright 2016 MPC           M.P.E.C. 2016-E126
    

    Read MPEC 2016-E125 Read MPEC 2016-E127


    MPEC number:

    Enter an MPEC number in one of the following forms:

    • 1997-B01 (the full form)
    • J97B01 (the packed version of the full form)
    • B01 (the abbreviated form)